Location: Koslow
(50.3020°N, 18.5663°E)
Time: 08:17:37
(UTC+00:00)

STARLINK-1357 - Pass Details

Date: 04 October 2020
Orbit: 548 x 551 km, 53.0° (Epoch: 31 October)

Event Time Altitude Azimuth Distance (km) Brightness Sun altitude
Exits shadow 02:26:21 61° 351° (N) 630 3.8 -23.4°
Maximum altitude 02:26:22 61° 353° (N) 630 3.8 -23.4°
Drops below altitude 10° 02:30:30 10° 74° (ENE) 1,831 7.4 -22.8°
Sets 02:32:45 0° 78° (ENE) 2,727 8.6 -22.5°
